CAPE
715 903 1515 966 594 376 228 123 78 175 407 352 272 91 7 6 4 0 0 0 0 0 9 30 30 68 99 90 77 47 22 0 0 0 0 0 0 0 0 0 9 9 4
785 858 1408 1305 721 421 123 45 6 0 19 84 110 77 7 23 1 0 0 0 0 0 6 8 33 58 59 48 36 28 1 0 0 0 0 0 0 0 0 0 0 4 0
994 985 1068 1382 1153 702 146 61 18 0 0 1 52 64 50 48 7 0 0 0 0 0 6 3 2 8 1 9 0 0 0 0 0 0 0 0 0 0 0 0 0 0 5
1133 1008 1051 1459 1242 603 183 76 4 0 0 3 206 264 58 17 0 0 1 0 0 0 0 0 0 0 0 0 0 0 0 0 0 5 0 0 0 0 0 0 0 2 19
1137 1036 1325 1559 1219 683 256 71 0 39 33 196 82 54 16 12 1 0 2 0 0 0 2 1 0 0 0 0 0 0 0 0 4 3 0 0 0 15 8 0 0 0 0
858 1079 1504 1571 1298 954 676 140 8 106 173 32 89 51 33 1 0 0 0 0 0 0 1 3 2 0 0 0 0 0 0 0 3 0 0 37 15 51 19 4 76 82 51
990 1323 1360 1640 1464 1106 769 511 68 94 105 42 12 1 0 10 8 4 2 0 0 0 0 1 6 0 0 0 0 0 0 7 0 0 6 22 36 63 36 76 86 94 139
1280 1301 1349 1533 1459 1102 740 429 208 126 177 98 65 62 63 13 0 31 8 0 0 0 0 1 0 0 13 33 25 0 0 3 1 0 3 3 53 20 1 21 0 25 149
1401 1358 1377 1301 1118 893 675 428 310 225 293 299 188 224 59 293 479 317 53 0 0 0 0 26 25 42 33 1 0 0 0 0 0 0 0 0 1 0 0 2 31 98 45
1389 1418 1310 1153 977 652 482 486 373 283 312 329 304 329 46 279 441 439 289 144 0 1 90 41 28 16 0 0 0 0 0 0 0 0 0 0 0 0 3 19 22 35 17
1372 1337 1186 1067 803 526 400 335 423 351 271 283 129 90 5 53 178 92 47 86 126 73 48 1 2 0 0 0 0 0 0 0 0 0 0 0 0 35 16 35 16 15 24
754 1312 1283 1108 842 615 627 376 247 175 43 20 12 40 0 0 7 31 13 44 150 125 1 0 0 0 0 0 0 0 0 0 0 0 0 0 1 21 36 18 3 3 20
268 665 1447 1207 997 798 730 359 196 166 32 0 0 0 0 0 0 0 0 3 0 0 0 0 0 0 0 0 0 0 0 0 0 0 0 2 20 14 22 3 0 3 3
242 274 869 1354 1164 996 725 390 232 184 146 37 1 0 0 0 0 0 0 0 0 0 0 0 0 0 0 0 0 0 0 0 0 0 0 0 0 6 3 0 0 0 0
171 255 274 1026 1207 1001 772 454 462 219 281 240 96 19 0 0 0 0 0 0 0 0 0 0 0 0 0 0 0 0 0 0 0 0 0 0 0 0 0 0 0 0 0
28 192 456 421 694 957 940 810 663 415 323 306 97 30 0 0 0 0 0 0 0 0 0 0 0 0 0 0 0 0 0 0 0 0 0 0 0 0 0 0 0 0 0
0 71 419 655 668 970 926 1028 710 654 365 376 297 67 0 0 0 0 0 0 0 0 0 0 0 0 0 0 0 0 0 0 0 0 0 0 0 0 0 0 0 0 0
0 0 433 837 1011 1055 1104 766 855 871 419 401 332 243 13 0 0 0 0 0 0 0 0 0 0 0 0 0 0 0 0 0 0 0 0 0 0 0 0 0 0 0 0
0 0 0 720 1055 1319 1180 990 770 735 404 366 275 234 0 0 0 0 0 0 0 0 0 0 0 0 0 0 0 0 0 0 0 0 0 0 0 0 0 0 0 0 0
0 0 0 53 852 1395 1310 1245 550 662 544 468 458 149 0 0 0 0 0 0 0 0 0 0 0 0 0 0 0 0 0 0 0 0 0 0 0 0 0 0 0 0 0
0 0 0 0 455 962 1207 1105 473 711 499 433 107 0 0 0 0 0 0 0 0 0 0 0 0 0 0 0 0 0 0 0 0 0 0 0 0 0 0 0 0 0 0
0 0 0 0 0 567 1180 1237 673 106 0 0 0 0 0 0 0 0 0 0 0 0 0 0 0 0 0 0 0 0 0 0 0 0 0 0 0 0 0 0 0 0 0
0 0 0 0 0 0 437 0 0 0 0 0 0 0 0 0 0 0 0 0 0 0 0 0 0 0 0 0 0 0 0 0 0 0 0 0 0 0 0 0 0 0 0
0 0 0 0 0 0 0 0 0 50 0 0 0 0 0 0 0 0 0 0 0 0 0 0 0 0 0 0 0 0 0 0 0 0 0 0 0 0 0 0 0 0 0
0 0 0 0 0 0 17 0 55 0 0 0 0 0 0 0 0 0 0 0 0 0 0 0 0 0 0 0 0 0 0 0 0 0 0 0 0 0 0 0 0 0 0
0 0 0 0 0 32 0 0 6 0 0 0 0 0 0 0 0 0 0 0 0 0 0 0 0 0 0 0 0 0 0 0 0 0 0 0 0 0 0 0 0 0 0
CIN
-204 -179 -102 -149 -179 -195 -198 -220 -206 -131 -59 -53 -58 -137 -0 -0 -0 -0 -0 -0 -0 -0 -0 -0 -0 -0 -132 -0 -0 -5 -21 -0 -0 -0 -0 -0 -0 -0 -0 -0 -3 -5 -6
-212 -169 -100 -107 -165 -189 -246 -268 -98 -0 -31 -133 -116 -156 -0 -0 -0 -0 -0 -0 -0 -0 -0 -0 -0 -0 -1 -4 -14 -27 -2 -0 -0 -0 -0 -0 -0 -0 -0 -0 -0 -4 -0
-174 -141 -120 -90 -108 -147 -244 -253 -271 -0 -0 -0 -122 -106 -0 -0 -0 -0 -0 -0 -0 -0 -0 -0 -18 -27 -13 -42 -3 -0 -0 -0 -0 -0 -0 -0 -0 -0 -0 -0 -0 -0 -1
-159 -142 -129 -84 -95 -170 -253 -269 -73 -0 -0 -0 -103 -76 -53 -0 -0 -0 -0 -0 -0 -0 -0 -0 -0 -0 -0 -0 -0 -0 -0 -0 -0 -17 -0 -0 -0 -0 -0 -0 -0 -0 -2
-164 -142 -101 -83 -102 -152 -237 -298 -0 -247 -228 -142 -151 -151 -0 -0 -0 -0 -0 -0 -0 -0 -0 -0 -0 -0 -0 -0 -0 -0 -0 -0 -30 -10 -0 -0 -1 -7 -4 -0 -0 -0 -0
-210 -135 -88 -84 -99 -125 -154 -263 -375 -212 -166 -233 -155 -171 -152 -0 -0 -0 -0 -0 -0 -0 -0 -0 -0 -0 -0 -0 -0 -0 -0 -0 -43 -20 -0 -24 -28 -195 -3 -0 -129 -132 -178
-204 -123 -98 -74 -77 -103 -141 -173 -301 -252 -208 -237 -280 -66 -0 -41 -40 -0 -1 -0 -0 -0 -0 -0 -0 -0 -0 -0 -0 -0 -0 -29 -0 -0 -36 -33 -22 -179 -178 -106 -148 -142 -115
-184 -131 -101 -74 -66 -103 -148 -209 -242 -238 -203 -216 -226 -197 -154 -184 -0 -125 -1 -0 -0 -0 -0 -0 -0 -0 -51 -98 -128 -0 -0 -12 -32 -0 -45 -34 -166 -118 -0 -223 -0 -262 -94
-167 -126 -88 -84 -106 -125 -158 -221 -242 -236 -185 -167 -164 -145 -199 -89 -50 -53 -94 -0 -0 -0 -0 -86 -80 -69 -99 -10 -0 -0 -0 -0 -0 -0 -0 -0 -4 -0 -0 -0 -218 -172 -273
-129 -114 -113 -104 -123 -170 -212 -206 -228 -237 -201 -167 -152 -131 -273 -118 -62 -46 -57 -66 -1 -14 -54 -84 -101 -129 -0 -0 -0 -0 -0 -0 -0 -0 -0 -0 -0 -0 -0 -30 -49 -342 -133
-122 -121 -116 -110 -151 -211 -246 -259 -215 -230 -234 -217 -268 -260 -269 -218 -155 -166 -188 -118 -81 -83 -103 -53 -137 -0 -0 -0 -0 -0 -0 -0 -0 -0 -0 -0 -0 -0 -0 -0 -0 -0 -0
-186 -106 -112 -119 -147 -189 -170 -243 -293 -313 -397 -415 -424 -369 -0 -0 -126 -272 -230 -182 -87 -85 -56 -0 -0 -0 -0 -0 -0 -0 -0 -0 -0 -0 -0 -0 -0 -0 -0 -0 -0 -0 -0
-160 -182 -86 -114 -134 -164 -169 -277 -336 -343 -415 -0 -0 -0 -0 -0 -0 -0 -0 -32 -0 -0 -0 -0 -0 -0 -0 -0 -0 -0 -0 -0 -0 -0 -0 -0 -0 -0 -0 -0 -0 -0 -0
-182 -160 -159 -98 -99 -141 -214 -300 -331 -336 -334 -435 -19 -0 -0 -0 -0 -0 -0 -0 -0 -0 -0 -0 -0 -0 -0 -0 -0 -0 -0 -0 -0 -0 -0 -0 -0 -0 -0 -0 -0 -0 -0
-145 -161 -158 -113 -99 -127 -240 -270 -243 -311 -266 -292 -358 -418 -0 -0 -0 -0 -0 -0 -0 -0 -0 -0 -0 -0 -0 -0 -0 -0 -0 -0 -0 -0 -0 -0 -0 -0 -0 -0 -0 -0 -0
-98 -160 -132 -137 -125 -127 -162 -165 -160 -221 -211 -231 -347 -400 -0 -0 -0 -0 -0 -0 -0 -0 -0 -0 -0 -0 -0 -0 -0 -0 -0 -0 -0 -0 -0 -0 -0 -0 -0 -0 -0 -0 -0
-0 -110 -115 -124 -150 -110 -146 -106 -115 -101 -182 -175 -169 -276 -0 -0 -0 -0 -0 -0 -0 -0 -0 -0 -0 -0 -0 -0 -0 -0 -0 -0 -0 -0 -0 -0 -0 -0 -0 -0 -0 -0 -0
-0 -0 -108 -67 -103 -115 -105 -138 -101 -82 -148 -182 -144 -172 -403 -0 -0 -0 -0 -0 -0 -0 -0 -0 -0 -0 -0 -0 -0 -0 -0 -0 -0 -0 -0 -0 -0 -0 -0 -0 -0 -0 -0
-0 -0 -0 -87 -105 -104 -110 -117 -139 -132 -157 -205 -221 -163 -0 -0 -0 -0 -0 -0 -0 -0 -0 -0 -0 -0 -0 -0 -0 -0 -0 -0 -0 -0 -0 -0 -0 -0 -0 -0 -0 -0 -0
-0 -0 -0 -65 -106 -102 -119 -95 -216 -141 -133 -165 -138 -254 -0 -0 -0 -0 -0 -0 -0 -0 -0 -0 -0 -0 -0 -0 -0 -0 -0 -0 -0 -0 -0 -0 -0 -0 -0 -0 -0 -0 -0
-0 -0 -0 -0 -129 -116 -132 -115 -197 -133 -172 -201 -295 -0 -0 -0 -0 -0 -0 -0 -0 -0 -0 -0 -0 -0 -0 -0 -0 -0 -0 -0 -0 -0 -0 -0 -0 -0 -0 -0 -0 -0 -0
-0 -0 -0 -0 -0 -134 -122 -119 -181 -292 -0 -0 -0 -0 -0 -0 -0 -0 -0 -0 -0 -0 -0 -0 -0 -0 -0 -0 -0 -0 -0 -0 -0 -0 -0 -0 -0 -0 -0 -0 -0 -0 -0
-0 -0 -0 -0 -0 -0 -237 -0 -0 -0 -0 -0 -0 -0 -0 -0 -0 -0 -0 -0 -0 -0 -0 -0 -0 -0 -0 -0 -0 -0 -0 -0 -0 -0 -0 -0 -0 -0 -0 -0 -0 -0 -0
-0 -0 -0 -0 -0 -0 -0 -0 -0 -275 -0 -0 -0 -0 -0 -0 -0 -0 -0 -0 -0 -0 -0 -0 -0 -0 -0 -0 -0 -0 -0 -0 -0 -0 -0 -0 -0 -0 -0 -0 -0 -0 -0
-0 -0 -0 -0 -0 -0 -420 -0 -364 -0 -0 -0 -0 -0 -0 -0 -0 -0 -0 -0 -0 -0 -0 -0 -0 -0 -0 -0 -0 -0 -0 -0 -0 -0 -0 -0 -0 -0 -0 -0 -0 -0 -0
-0 -0 -0 -0 -0 -310 -0 -0 -145 -0 -0 -0 -0 -0 -0 -0 -0 -0 -0 -0 -0 -0 -0 -0 -0 -0 -0 -0 -0 -0 -0 -0 -0 -0 -0 -0 -0 -0 -0 -0 -0 -0 -0
Wind_Speed
7 13 18 18 17 16 15 15 14 13 13 13 14 16 15 15 14 14 13 12 11 10 11 11 13 13 13 15 14 12 10 9 7 6 6 5 6 9 8 7 7 7 6
13 12 18 18 18 17 16 15 14 12 10 12 13 15 14 14 14 13 13 12 11 11 11 10 12 14 15 14 11 11 8 6 3 3 3 2 2 7 7 6 5 4 5
15 13 14 18 18 17 17 15 13 12 11 11 13 14 15 15 14 13 14 12 12 12 11 11 11 12 12 11 9 9 6 4 3 4 3 3 2 5 6 6 4 1 1
16 12 13 18 18 18 17 15 13 13 13 12 11 15 15 14 14 14 14 13 13 12 12 11 10 10 10 9 8 7 4 3 3 5 3 4 4 6 5 3 2 5 6
15 12 13 18 19 17 17 16 15 15 14 15 13 14 14 14 14 14 13 12 12 12 11 11 10 10 9 8 6 6 5 2 4 4 4 5 4 4 5 3 3 3 3
16 13 17 19 19 17 16 16 15 14 15 15 13 13 13 13 13 12 13 12 11 10 10 9 8 8 7 6 5 4 3 4 6 5 4 8 5 6 5 4 3 3 3
15 15 16 20 18 17 16 15 15 16 17 16 14 13 12 10 10 10 13 12 11 9 8 8 7 7 7 6 4 3 4 6 5 4 1 4 4 7 5 7 9 9 8
16 15 15 19 19 17 16 16 15 15 16 14 14 14 12 9 8 10 15 12 11 9 8 7 8 7 6 5 3 2 3 6 5 5 5 5 7 7 5 8 7 7 10
15 14 12 13 15 17 16 16 16 16 14 14 12 13 9 5 6 15 14 12 10 9 8 7 6 6 5 4 2 1 3 5 4 4 4 3 6 7 6 6 7 11 13
13 14 12 10 11 10 9 14 14 14 14 12 11 12 10 8 10 14 12 11 10 9 8 7 7 6 4 3 1 2 5 8 5 4 3 3 8 6 7 10 9 12 12
11 12 12 10 9 7 6 8 11 12 11 11 11 11 8 4 6 8 8 10 9 8 7 6 6 6 3 1 3 6 6 4 5 3 2 7 8 12 10 12 12 12 12
13 13 13 13 12 10 8 7 6 6 4 4 5 6 5 5 4 7 7 10 9 8 7 7 5 5 4 1 2 5 2 6 4 3 3 7 8 11 13 12 12 11 12
9 11 14 14 14 13 9 7 4 3 4 4 6 6 5 4 4 4 3 3 3 5 2 3 2 2 3 3 3 4 4 5 3 3 5 11 11 10 12 12 12 12 11
10 12 15 15 14 13 9 9 8 6 6 5 6 7 4 3 6 5 4 4 4 3 3 2 2 3 4 5 4 4 5 4 3 3 4 13 11 11 11 11 11 11 10
10 11 13 17 15 12 12 9 9 9 8 8 8 8 7 6 5 5 5 4 4 4 4 4 4 3 4 4 4 4 5 6 6 3 3 12 11 11 10 10 10 10 10
12 12 13 14 15 13 11 12 9 9 10 8 7 9 9 6 5 5 5 5 4 5 4 4 4 3 3 3 4 3 4 5 5 5 3 5 10 9 9 9 10 10 10
7 13 14 14 14 16 12 13 9 8 9 8 9 12 11 8 6 8 6 5 4 4 6 4 4 4 4 3 4 2 2 4 5 5 4 4 5 7 8 8 9 10 10
8 7 15 14 15 16 13 8 8 9 7 8 8 7 9 10 11 7 6 5 5 5 4 4 3 4 3 3 2 3 1 2 5 6 5 4 3 3 5 6 8 9 9
9 9 10 16 17 17 14 10 6 8 5 6 6 8 11 11 11 9 5 5 6 5 4 3 3 3 2 3 3 1 0 2 3 4 5 6 6 4 3 3 8 9 10
14 9 9 10 16 17 12 10 5 5 5 7 8 7 11 9 10 9 6 6 6 5 5 3 4 4 2 2 2 2 1 2 3 4 4 3 4 4 3 4 3 2 7
8 8 8 9 14 13 10 9 4 7 6 5 4 11 11 8 10 11 7 7 6 6 6 6 4 4 4 3 2 3 3 3 1 2 2 2 4 3 4 4 2 1 1
9 9 7 8 10 13 12 11 6 5 2 4 6 7 10 11 9 10 10 8 8 6 6 5 4 3 2 4 3 2 2 4 4 3 2 3 2 1 2 0 2 1 2
9 9 9 9 9 10 10 8 6 7 4 3 2 6 6 9 10 9 9 10 9 6 5 5 5 5 3 2 4 3 2 2 2 3 3 3 4 3 3 4 3 4 2
9 8 10 9 9 9 13 12 18 12 10 4 4 4 8 9 8 9 8 8 9 6 7 5 4 4 4 3 2 3 3 3 2 3 3 3 2 3 3 4 4 4 4
6 8 9 9 8 9 11 15 13 12 5 6 5 7 8 9 8 10 9 9 8 6 6 7 7 6 3 4 3 2 3 2 3 2 4 4 4 4 4 3 5 4 6
5 5 7 9 9 10 14 14 17 17 14 10 9 8 8 9 8 9 11 8 8 8 8 5 6 7 5 5 3 2 2 2 2 2 2 3 4 3 3 4 4 4 4
Wind_Direction
153 150 147 141 133 126 121 116 114 114 119 121 123 121 119 113 104 95 88 85 86 93 86 79 83 81 95 109 102 94 83 75 66 65 70 69 67 79 70 59 40 42 65
143 149 146 141 135 130 124 119 116 114 118 128 131 129 126 118 108 97 87 83 86 96 96 88 81 89 87 89 92 90 84 77 56 53 77 122 2 73 75 55 52 48 68
140 149 147 142 137 131 127 122 119 120 127 136 143 144 134 123 113 106 99 96 96 98 100 97 93 88 88 87 86 83 79 64 21 350 351 141 187 72 76 49 56 45 121
142 151 151 145 140 137 135 130 127 130 131 134 128 144 130 124 121 114 106 103 101 102 101 96 93 91 91 93 93 87 89 66 359 332 339 140 153 79 68 55 13 22 19
141 152 153 148 143 142 141 137 135 137 134 134 127 130 132 134 127 121 115 111 109 107 101 95 91 88 90 92 91 84 75 359 327 324 326 120 122 98 66 28 341 341 338
148 148 152 150 147 147 146 141 139 140 146 132 131 129 136 135 135 132 128 122 116 110 102 99 95 95 93 86 84 70 52 343 335 326 149 129 142 93 57 7 329 281 275
146 149 153 153 150 151 150 146 145 147 145 140 139 141 141 135 140 149 144 134 128 121 111 105 105 103 102 98 84 58 3 339 342 339 308 114 114 64 40 27 38 28 36
146 151 157 155 153 155 153 148 149 154 153 146 144 141 139 149 167 162 151 144 136 129 119 114 114 115 106 95 79 34 334 336 344 11 64 65 65 63 40 46 26 30 40
140 147 155 159 156 159 159 156 155 155 160 153 150 142 135 136 169 159 150 147 139 133 126 125 126 121 117 115 115 338 356 339 36 80 75 52 59 60 51 50 66 64 51
148 153 153 159 156 160 163 161 160 160 158 156 154 140 141 132 122 137 142 144 144 140 134 129 134 138 138 137 176 30 10 23 86 85 62 44 51 53 68 75 71 66 62
155 157 157 156 155 155 155 167 161 160 165 160 156 156 153 148 138 132 142 140 147 149 147 144 148 136 124 116 321 18 60 69 98 64 53 58 48 82 78 78 65 62 66
160 167 165 164 165 164 168 157 154 153 153 163 159 168 170 169 158 147 149 152 157 157 159 165 145 134 128 70 10 46 28 63 88 61 32 67 89 87 82 71 64 60 64
177 168 172 172 172 171 167 160 160 158 155 175 179 188 170 165 161 148 147 155 153 167 175 124 108 123 103 89 54 54 30 67 88 71 47 65 85 86 77 68 62 63 55
187 184 170 176 177 177 161 166 171 168 179 185 183 195 151 159 150 162 162 168 165 174 172 155 128 85 82 74 59 60 49 79 103 84 64 79 83 80 78 67 61 56 51
196 188 178 174 177 178 166 171 172 177 186 191 187 187 163 170 170 165 167 162 164 147 142 114 95 78 66 62 59 72 55 82 125 103 77 91 89 84 77 68 57 50 40
190 189 187 179 173 168 175 173 178 175 191 188 184 180 176 168 171 149 141 147 138 122 124 116 103 81 62 53 42 66 81 78 129 125 109 97 105 94 80 65 50 37 31
227 181 188 182 166 174 177 181 174 178 178 185 179 174 172 167 145 146 144 132 128 113 104 94 74 71 54 27 41 32 79 99 110 140 122 105 95 85 81 60 41 29 24
226 198 187 187 177 172 179 181 175 180 174 180 179 162 163 146 145 142 133 131 130 109 107 93 85 71 67 42 351 358 34 87 110 129 139 134 126 106 78 70 38 24 14
221 217 202 190 183 184 183 175 188 176 165 167 164 155 151 146 144 137 135 134 126 115 108 115 67 102 56 3 318 16 226 121 143 120 142 148 155 138 138 51 49 38 13
237 211 197 201 187 185 184 181 136 157 177 171 178 155 144 144 143 133 131 131 127 124 120 106 107 56 83 334 320 356 279 109 132 133 161 140 143 142 131 90 78 31 18
233 240 212 180 199 175 176 175 154 168 165 149 143 149 142 138 142 143 145 134 134 138 143 137 113 99 24 348 57 1 8 4 110 169 165 122 159 156 126 133 163 147 15
233 218 220 207 197 191 180 183 159 148 128 126 145 136 143 147 148 146 152 146 142 131 126 128 125 116 78 14 109 90 34 339 346 4 53 114 107 101 112 135 319 318 159
241 236 221 199 204 197 174 119 94 88 77 75 135 141 144 145 147 146 157 144 144 135 135 132 130 136 141 26 60 135 82 217 320 334 20 61 29 43 3 354 336 311 261
239 244 235 207 190 203 160 156 158 168 168 192 178 175 140 150 145 138 134 143 134 131 133 136 130 128 124 137 44 45 80 141 140 331 330 334 27 32 344 329 346 338 296
254 225 222 242 198 180 176 167 166 156 122 125 121 138 151 133 141 139 129 136 138 135 137 133 126 121 115 127 133 108 60 46 71 130 270 308 347 335 327 333 314 315 325
322 289 240 228 229 182 165 170 165 151 142 143 156 160 166 142 143 144 138 135 140 141 141 137 123 119 116 111 113 115 145 153 177 141 255 278 266 281 305 299 308 336 335